DLH178 EHAM-ENBR

Flight info

Callsign DLH178
Flight time 1h 22m
Altitude 37000
Route ANDIK N873 REXMI DCT KARLI DCT ALUVA
Aircraft A320/M-SDE3FGHIRWY/LB1

Departure

Time 2026-04-28 15:33
Airport Amsterdam Airport Schiphol (EHAM)

Arrival

Time 2026-04-28 16:55
Airport Bergen Airport, Flesland (ENBR)
Time Latitude Longitude Altitude Speed Heading
2026-04-28 15:13 52.30478 4.76295 -1 ft 0 kts 237°
2026-04-28 15:19 52.30490 4.76323 -1 ft 4 kts 227°
2026-04-28 15:19 52.30510 4.76348 -1 ft 4 kts 187°
2026-04-28 15:20 52.30524 4.76346 -1 ft 1 kts 148°
2026-04-28 15:24 52.30520 4.76350 -1 ft 4 kts 149°
2026-04-28 15:24 52.30455 4.76417 -1 ft 14 kts 145°
2026-04-28 15:25 52.30380 4.76501 -1 ft 12 kts 148°
2026-04-28 15:25 52.30304 4.76516 -1 ft 12 kts 211°
2026-04-28 15:25 52.30244 4.76381 -1 ft 16 kts 237°
2026-04-28 15:25 52.30179 4.76208 -1 ft 20 kts 241°
2026-04-28 15:26 52.30101 4.76021 -1 ft 20 kts 237°
2026-04-28 15:26 52.30034 4.75842 -1 ft 22 kts 237°
2026-04-28 15:26 52.29943 4.75609 -1 ft 23 kts 238°
2026-04-28 15:26 52.29863 4.75395 -1 ft 21 kts 239°
2026-04-28 15:27 52.29850 4.75187 -1 ft 18 kts 302°
2026-04-28 15:27 52.29926 4.75039 -1 ft 17 kts 311°
2026-04-28 15:27 52.29999 4.74901 -1 ft 15 kts 311°
2026-04-28 15:27 52.30069 4.74773 0 ft 14 kts 311°
2026-04-28 15:28 52.30129 4.74662 9 ft 13 kts 310°
2026-04-28 15:28 52.30232 4.74474 10 ft 23 kts 310°
2026-04-28 15:28 52.30314 4.74318 2 ft 20 kts 312°
2026-04-28 15:28 52.30424 4.74196 -1 ft 20 kts 355°
2026-04-28 15:29 52.30573 4.74207 -1 ft 24 kts
2026-04-28 15:29 52.30752 4.74223 -1 ft 26 kts
2026-04-28 15:29 52.30930 4.74240 -1 ft 25 kts
2026-04-28 15:29 52.31103 4.74259 -1 ft 25 kts
2026-04-28 15:30 52.31271 4.74272 -1 ft 22 kts
2026-04-28 15:30 52.31387 4.74341 -1 ft 17 kts 65°
2026-04-28 15:30 52.31397 4.74535 -1 ft 17 kts 86°
2026-04-28 15:30 52.31454 4.74672 -1 ft 15 kts 359°
2026-04-28 15:31 52.31554 4.74663 -1 ft 13 kts 357°
2026-04-28 15:31 52.31567 4.74662 -1 ft 0 kts 356°
2026-04-28 15:32 52.31568 4.74662 -1 ft 1 kts 356°
2026-04-28 15:32 52.31584 4.74661 -1 ft 6 kts 357°
2026-04-28 15:32 52.31669 4.74773 -1 ft 19 kts 86°
2026-04-28 15:32 52.31670 4.74812 -1 ft 0 kts 87°
2026-04-28 15:33 52.31676 4.74974 -3 ft 47 kts 86°
2026-04-28 15:33 52.31706 4.75886 -2 ft 111 kts 86°
2026-04-28 15:33 52.31755 4.77417 85 ft 149 kts 86°
2026-04-28 15:33 52.31793 4.79075 753 ft 146 kts 81°
2026-04-28 15:34 52.31857 4.80189 1236 ft 147 kts 83°
2026-04-28 15:34 52.32003 4.82611 1771 ft 176 kts 83°
2026-04-28 15:34 52.32130 4.84746 2118 ft 201 kts 81°
2026-04-28 15:34 52.32270 4.87154 2549 ft 225 kts 82°
2026-04-28 15:35 52.32533 4.89740 3315 ft 235 kts 70°
2026-04-28 15:35 52.33501 4.93976 4827 ft 244 kts 86°
2026-04-28 15:35 52.33503 4.96725 5671 ft 249 kts 92°
2026-04-28 15:36 52.33424 4.99609 6099 ft 252 kts 93°
2026-04-28 15:36 52.33338 5.02505 6613 ft 248 kts 93°
2026-04-28 15:36 52.33250 5.05301 7568 ft 252 kts 93°
2026-04-28 15:36 52.33157 5.08176 8341 ft 259 kts 92°
2026-04-28 15:37 52.33313 5.11124 9132 ft 265 kts 73°
2026-04-28 15:37 52.34235 5.13769 9941 ft 273 kts 48°
2026-04-28 15:37 52.35826 5.15488 10740 ft 283 kts 22°
2026-04-28 15:37 52.37817 5.16275 11099 ft 307 kts 14°
2026-04-28 15:38 52.40004 5.16951 11322 ft 331 kts 13°
2026-04-28 15:38 52.42351 5.17618 11483 ft 354 kts 12°
2026-04-28 15:38 52.44852 5.18320 11611 ft 375 kts 12°
2026-04-28 15:38 52.47468 5.19066 11971 ft 386 kts 13°
2026-04-28 15:39 52.50131 5.19837 12569 ft 391 kts 12°
2026-04-28 15:39 52.52817 5.20632 13098 ft 394 kts 13°
2026-04-28 15:39 52.55516 5.21441 13242 ft 394 kts 13°
2026-04-28 15:39 52.58211 5.22253 13291 ft 395 kts 13°
2026-04-28 15:40 52.60829 5.23043 13868 ft 398 kts 13°
2026-04-28 15:40 52.63560 5.23867 14500 ft 400 kts 13°
2026-04-28 15:40 52.66309 5.24703 15074 ft 403 kts 12°
2026-04-28 15:40 52.69066 5.25589 15625 ft 405 kts 15°
2026-04-28 15:41 52.71728 5.27109 16161 ft 405 kts 26°
2026-04-28 15:41 52.74178 5.29407 16681 ft 406 kts 36°
2026-04-28 15:41 52.76347 5.32402 17187 ft 408 kts 46°
2026-04-28 15:41 52.78186 5.35973 17691 ft 410 kts 52°
2026-04-28 15:42 52.79948 5.39699 18167 ft 412 kts 52°
2026-04-28 15:42 52.81714 5.43447 18612 ft 415 kts 52°
2026-04-28 15:42 52.83492 5.47226 19007 ft 417 kts 52°
2026-04-28 15:42 52.85278 5.51032 19395 ft 419 kts 52°
2026-04-28 15:43 52.87069 5.54850 19810 ft 421 kts 52°
2026-04-28 15:43 52.88865 5.58687 20193 ft 423 kts 52°
2026-04-28 15:43 52.90670 5.62547 20572 ft 425 kts 52°
2026-04-28 15:43 52.92478 5.66418 20922 ft 426 kts 52°
2026-04-28 15:44 52.94299 5.70322 21251 ft 428 kts 52°
2026-04-28 15:44 52.96122 5.74240 21590 ft 430 kts 52°
2026-04-28 15:44 52.97952 5.78179 21918 ft 432 kts 52°
2026-04-28 15:44 52.99791 5.82139 22231 ft 434 kts 52°
2026-04-28 15:45 53.01606 5.86059 22564 ft 435 kts 52°
2026-04-28 15:45 53.03478 5.90108 22865 ft 437 kts 52°
2026-04-28 15:45 53.05308 5.94065 23155 ft 439 kts 52°
2026-04-28 15:45 53.07167 5.98093 23441 ft 440 kts 52°
2026-04-28 15:46 53.09032 6.02145 23720 ft 442 kts 52°
2026-04-28 15:46 53.10898 6.06210 23964 ft 443 kts 52°
2026-04-28 15:46 53.12770 6.10291 24191 ft 444 kts 52°
2026-04-28 15:46 53.14647 6.14384 24415 ft 445 kts 52°
2026-04-28 15:47 53.16525 6.18487 24630 ft 445 kts 52°
2026-04-28 15:47 53.18397 6.22589 24928 ft 444 kts 52°
2026-04-28 15:47 53.20252 6.26674 25262 ft 441 kts 52°
2026-04-28 15:47 53.22098 6.30744 25591 ft 439 kts 52°
2026-04-28 15:48 53.23935 6.34792 25923 ft 436 kts 52°
2026-04-28 15:48 53.25762 6.38817 26263 ft 434 kts 52°
2026-04-28 15:48 53.27578 6.42826 26612 ft 431 kts 52°
2026-04-28 15:48 53.29381 6.46815 26965 ft 429 kts 52°
2026-04-28 15:49 53.31173 6.50789 27325 ft 427 kts 52°
2026-04-28 15:49 53.32954 6.54742 27688 ft 424 kts 52°
2026-04-28 15:49 53.34773 6.58603 28052 ft 422 kts 47°
2026-04-28 15:49 53.36865 6.62017 28430 ft 419 kts 42°
2026-04-28 15:50 53.39015 6.65297 28819 ft 416 kts 43°
2026-04-28 15:50 53.41145 6.68564 29215 ft 414 kts 43°
2026-04-28 15:50 53.43258 6.71816 29610 ft 411 kts 43°
2026-04-28 15:50 53.45358 6.75056 30014 ft 409 kts 43°
2026-04-28 15:51 53.47440 6.78276 30421 ft 406 kts 43°
2026-04-28 15:51 53.49507 6.81479 30760 ft 403 kts 43°
2026-04-28 15:51 53.51564 6.84668 31072 ft 402 kts 43°
2026-04-28 15:51 53.53615 6.87854 31372 ft 401 kts 43°
2026-04-28 15:52 53.55658 6.91032 31668 ft 399 kts 43°
2026-04-28 15:52 53.57717 6.94168 31959 ft 399 kts 41°
2026-04-28 15:52 53.59816 6.97202 32241 ft 398 kts 40°
2026-04-28 15:52 53.61942 7.00185 32523 ft 397 kts 40°
2026-04-28 15:53 53.64071 7.03143 32805 ft 397 kts 39°
2026-04-28 15:53 53.66198 7.06101 33093 ft 396 kts 39°
2026-04-28 15:53 53.68315 7.09065 33380 ft 395 kts 40°
2026-04-28 15:53 53.70418 7.12044 33661 ft 394 kts 40°
2026-04-28 15:54 53.72507 7.15028 33959 ft 394 kts 40°
2026-04-28 15:54 53.74569 7.17981 34239 ft 393 kts 40°
2026-04-28 15:54 53.76649 7.20969 34505 ft 392 kts 40°
2026-04-28 15:54 53.78722 7.23969 34715 ft 393 kts 40°
2026-04-28 15:55 53.80793 7.26982 34921 ft 393 kts 40°
2026-04-28 15:55 53.82872 7.30007 35106 ft 394 kts 40°
2026-04-28 15:55 53.84972 7.32997 35280 ft 395 kts 36°
2026-04-28 15:55 53.87292 7.35496 35455 ft 396 kts 27°
2026-04-28 15:56 53.89833 7.37321 35625 ft 398 kts 21°
2026-04-28 15:56 53.92434 7.38962 35788 ft 399 kts 21°
2026-04-28 15:56 53.95044 7.40584 35964 ft 400 kts 19°
2026-04-28 15:56 53.97755 7.41677 36133 ft 402 kts 13°
2026-04-28 15:57 54.00511 7.42544 36311 ft 402 kts 12°
2026-04-28 15:57 54.03269 7.43408 36393 ft 405 kts 12°
2026-04-28 15:57 54.08854 7.45162 36409 ft 410 kts 12°
2026-04-28 15:58 54.14473 7.46947 36408 ft 410 kts 12°
2026-04-28 15:58 54.20082 7.48740 36411 ft 410 kts 12°
2026-04-28 15:59 54.25688 7.50526 36408 ft 409 kts 12°
2026-04-28 15:59 54.31293 7.52312 36420 ft 409 kts 12°
2026-04-28 16:00 54.36901 7.54109 35449 ft 413 kts 10°
2026-04-28 16:00 54.39729 7.55012 35636 ft 415 kts 10°
2026-04-28 16:00 54.42571 7.55922 35820 ft 417 kts 10°
2026-04-28 16:01 54.45430 7.56838 35994 ft 419 kts 10°
2026-04-28 16:01 54.48316 7.57770 36010 ft 425 kts 10°
2026-04-28 16:01 54.54180 7.59670 36010 ft 438 kts 10°
2026-04-28 16:02 54.60283 7.61643 36013 ft 449 kts 10°
2026-04-28 16:02 54.66499 7.63656 36010 ft 459 kts 10°
2026-04-28 16:03 54.72777 7.65702 36009 ft 464 kts 10°
2026-04-28 16:03 54.79132 7.67777 36008 ft 465 kts 10°
2026-04-28 16:04 54.85496 7.69857 36010 ft 465 kts 10°
2026-04-28 16:04 54.91859 7.71946 36008 ft 465 kts 10°
2026-04-28 16:05 54.98286 7.72657 36007 ft 464 kts 353°
2026-04-28 16:05 55.04471 7.69699 35999 ft 462 kts 334°
2026-04-28 16:06 55.10026 7.64053 35999 ft 462 kts 328°
2026-04-28 16:06 55.15523 7.58212 35994 ft 463 kts 328°
2026-04-28 16:07 55.21029 7.52364 35999 ft 463 kts 328°
2026-04-28 16:08 55.29289 7.43557 35999 ft 463 kts 328°
2026-04-28 16:08 55.34791 7.37650 36000 ft 464 kts 328°
2026-04-28 16:09 55.43037 7.28753 36005 ft 464 kts 328°
2026-04-28 16:10 55.51293 7.19823 36009 ft 464 kts 328°
2026-04-28 16:10 55.59545 7.10867 36014 ft 464 kts 328°
2026-04-28 16:11 55.70542 6.98839 36019 ft 465 kts 328°
2026-04-28 16:12 55.78786 6.89757 36024 ft 465 kts 328°
2026-04-28 16:13 55.87031 6.80636 36026 ft 465 kts 328°
2026-04-28 16:14 55.97975 6.68450 36027 ft 465 kts 327°
2026-04-28 16:15 56.08939 6.56163 36026 ft 465 kts 327°
2026-04-28 16:15 56.14414 6.49991 36024 ft 465 kts 327°
2026-04-28 16:16 56.22619 6.40711 36024 ft 465 kts 327°
2026-04-28 16:17 56.30825 6.31399 36024 ft 465 kts 327°
2026-04-28 16:17 56.36284 6.25156 36025 ft 465 kts 327°
2026-04-28 16:18 56.41739 6.18894 36023 ft 464 kts 327°
2026-04-28 16:18 56.47193 6.12631 36021 ft 464 kts 327°
2026-04-28 16:19 56.52635 6.06356 36017 ft 464 kts 327°
2026-04-28 16:19 56.58071 6.00064 36014 ft 464 kts 327°
2026-04-28 16:20 56.63502 5.93758 36011 ft 464 kts 327°
2026-04-28 16:20 56.68931 5.87429 36011 ft 464 kts 327°
2026-04-28 16:21 56.73444 5.82149 36012 ft 464 kts 327°
2026-04-28 16:21 56.79748 5.74726 36013 ft 464 kts 327°
2026-04-28 16:22 56.84292 5.69387 36013 ft 464 kts 327°
2026-04-28 16:22 56.89716 5.62986 36014 ft 464 kts 327°
2026-04-28 16:23 56.95339 5.57267 36006 ft 464 kts 343°
2026-04-28 16:23 57.01691 5.55344 36009 ft 463 kts 349°
2026-04-28 16:24 57.07993 5.52903 36021 ft 462 kts 348°
2026-04-28 16:24 57.14289 5.50495 35739 ft 462 kts 348°
2026-04-28 16:25 57.17432 5.49292 35436 ft 460 kts 348°
2026-04-28 16:25 57.20566 5.48090 35137 ft 460 kts 348°
2026-04-28 16:25 57.23706 5.46885 34837 ft 461 kts 348°
2026-04-28 16:25 57.26846 5.45679 34538 ft 461 kts 348°
2026-04-28 16:26 57.29951 5.44484 34242 ft 462 kts 348°
2026-04-28 16:26 57.33141 5.43255 33941 ft 463 kts 348°
2026-04-28 16:26 57.36308 5.42033 33640 ft 467 kts 348°
2026-04-28 16:26 57.39512 5.41000 33334 ft 468 kts 356°
2026-04-28 16:27 57.42767 5.40774 33038 ft 470 kts 358°
2026-04-28 16:27 57.45994 5.40614 32742 ft 470 kts 358°
2026-04-28 16:27 57.52552 5.40328 32141 ft 472 kts 358°
2026-04-28 16:28 57.55881 5.40193 31835 ft 473 kts 358°
2026-04-28 16:28 57.59161 5.40056 31537 ft 473 kts 358°
2026-04-28 16:28 57.62463 5.39908 31236 ft 474 kts 358°
2026-04-28 16:28 57.65716 5.39757 30937 ft 474 kts 358°
2026-04-28 16:29 57.72326 5.39449 30339 ft 476 kts 358°
2026-04-28 16:29 57.78952 5.39145 29737 ft 477 kts 358°
2026-04-28 16:30 57.82269 5.38998 29437 ft 477 kts 358°
2026-04-28 16:30 57.85592 5.38850 29137 ft 478 kts 358°
2026-04-28 16:30 57.88919 5.38696 28837 ft 479 kts 358°
2026-04-28 16:30 57.92248 5.38536 28535 ft 479 kts 358°
2026-04-28 16:31 57.95559 5.38380 28238 ft 480 kts 358°
2026-04-28 16:31 57.98930 5.38229 27935 ft 480 kts 358°
2026-04-28 16:31 58.02275 5.38085 27525 ft 481 kts 358°
2026-04-28 16:31 58.05626 5.37937 26998 ft 482 kts 358°
2026-04-28 16:32 58.08978 5.37785 26620 ft 483 kts 358°
2026-04-28 16:32 58.15705 5.37480 25870 ft 484 kts 358°
2026-04-28 16:32 58.19076 5.37329 25496 ft 485 kts 358°
2026-04-28 16:33 58.22451 5.37176 25124 ft 486 kts 358°
2026-04-28 16:33 58.24692 5.37072 24873 ft 486 kts 358°
2026-04-28 16:33 58.29219 5.36860 24370 ft 487 kts 358°
2026-04-28 16:33 58.32599 5.36704 23995 ft 485 kts 358°
2026-04-28 16:34 58.35961 5.36551 23620 ft 482 kts 358°
2026-04-28 16:34 58.39306 5.36396 23244 ft 480 kts 358°
2026-04-28 16:34 58.42634 5.36237 22869 ft 477 kts 358°
2026-04-28 16:34 58.45945 5.36076 22491 ft 474 kts 358°
2026-04-28 16:35 58.49233 5.35920 22111 ft 472 kts 358°
2026-04-28 16:35 58.52509 5.35766 21743 ft 469 kts 358°
2026-04-28 16:35 58.55764 5.35611 21367 ft 467 kts 358°
2026-04-28 16:35 58.58994 5.35456 20993 ft 464 kts 358°
2026-04-28 16:36 58.62198 5.35306 20619 ft 462 kts 358°
2026-04-28 16:36 58.65374 5.35161 20247 ft 459 kts 358°
2026-04-28 16:36 58.68568 5.35014 19875 ft 457 kts 358°
2026-04-28 16:36 58.71758 5.34864 19493 ft 454 kts 358°
2026-04-28 16:37 58.74905 5.34712 19118 ft 452 kts 358°
2026-04-28 16:37 58.78031 5.34561 18743 ft 449 kts 358°
2026-04-28 16:37 58.81126 5.34409 18370 ft 447 kts 358°
2026-04-28 16:38 58.87288 5.34117 17622 ft 442 kts 358°
2026-04-28 16:38 58.90352 5.33972 17247 ft 440 kts 358°
2026-04-28 16:38 58.93410 5.33822 16867 ft 437 kts 358°
2026-04-28 16:38 58.96447 5.33672 16494 ft 435 kts 358°
2026-04-28 16:39 58.99460 5.33520 16119 ft 433 kts 358°
2026-04-28 16:39 59.02485 5.33366 15741 ft 430 kts 358°
2026-04-28 16:39 59.05468 5.33222 15366 ft 428 kts 358°
2026-04-28 16:39 59.08437 5.33087 14990 ft 426 kts 358°
2026-04-28 16:40 59.11386 5.32952 14613 ft 423 kts 358°
2026-04-28 16:40 59.14326 5.32812 14239 ft 421 kts 358°
2026-04-28 16:40 59.17245 5.32667 13864 ft 419 kts 358°
2026-04-28 16:40 59.20148 5.32519 13489 ft 416 kts 358°
2026-04-28 16:41 59.23037 5.32374 13113 ft 414 kts 358°
2026-04-28 16:41 59.25911 5.32236 12738 ft 412 kts 358°
2026-04-28 16:41 59.28766 5.32106 12363 ft 410 kts 358°
2026-04-28 16:41 59.31615 5.31973 11986 ft 408 kts 358°
2026-04-28 16:42 59.34441 5.31832 11603 ft 405 kts 358°
2026-04-28 16:42 59.37252 5.31693 11234 ft 403 kts 358°
2026-04-28 16:42 59.40053 5.31554 10863 ft 401 kts 358°
2026-04-28 16:42 59.42802 5.31419 10479 ft 389 kts 358°
2026-04-28 16:43 59.45460 5.31288 10179 ft 374 kts 358°
2026-04-28 16:43 59.47961 5.31164 9935 ft 345 kts 358°
2026-04-28 16:43 59.50260 5.31048 9807 ft 316 kts 358°
2026-04-28 16:43 59.52381 5.30942 9679 ft 297 kts 358°
2026-04-28 16:44 59.54433 5.30840 9462 ft 294 kts 358°
2026-04-28 16:44 59.56466 5.30738 9211 ft 291 kts 358°
2026-04-28 16:44 59.58485 5.30640 8960 ft 289 kts 358°
2026-04-28 16:44 59.60491 5.30542 8709 ft 288 kts 358°
2026-04-28 16:45 59.62449 5.30444 8460 ft 287 kts 358°
2026-04-28 16:45 59.64473 5.30339 8202 ft 286 kts 358°
2026-04-28 16:45 59.66474 5.30232 7957 ft 285 kts 358°
2026-04-28 16:45 59.68452 5.30129 7709 ft 284 kts 358°
2026-04-28 16:46 59.70399 5.30031 7459 ft 283 kts 358°
2026-04-28 16:46 59.72364 5.29936 7209 ft 282 kts 358°
2026-04-28 16:46 59.74320 5.29842 6960 ft 281 kts 358°
2026-04-28 16:46 59.76270 5.29742 6707 ft 280 kts 358°
2026-04-28 16:47 59.78238 5.29638 6453 ft 279 kts 358°
2026-04-28 16:47 59.80147 5.29540 6205 ft 278 kts 358°
2026-04-28 16:47 59.82076 5.29443 5954 ft 277 kts 358°
2026-04-28 16:47 59.83996 5.29350 5703 ft 276 kts 358°
2026-04-28 16:48 59.85851 5.29261 5462 ft 275 kts 358°
2026-04-28 16:48 59.87760 5.29166 5212 ft 274 kts 358°
2026-04-28 16:48 59.89658 5.29066 4955 ft 273 kts 358°
2026-04-28 16:48 59.91552 5.28967 4706 ft 272 kts 358°
2026-04-28 16:49 59.93436 5.28867 4455 ft 271 kts 358°
2026-04-28 16:49 59.95316 5.28770 4203 ft 270 kts 358°
2026-04-28 16:49 59.97188 5.28674 3951 ft 269 kts 358°
2026-04-28 16:49 59.99054 5.28579 3701 ft 268 kts 358°
2026-04-28 16:50 60.00915 5.28487 3450 ft 267 kts 358°
2026-04-28 16:50 60.02766 5.28391 3199 ft 266 kts 358°
2026-04-28 16:50 60.04609 5.28293 2948 ft 265 kts 358°
2026-04-28 16:50 60.06452 5.28194 2697 ft 264 kts 358°
2026-04-28 16:51 60.08285 5.28102 2543 ft 263 kts 358°
2026-04-28 16:51 60.10070 5.28011 2524 ft 247 kts 356°
2026-04-28 16:51 60.11720 5.27688 2528 ft 229 kts 351°
2026-04-28 16:51 60.13256 5.27195 2526 ft 221 kts 350°
2026-04-28 16:52 60.14731 5.26697 2555 ft 206 kts 350°
2026-04-28 16:52 60.16084 5.26245 2486 ft 190 kts 350°
2026-04-28 16:52 60.17348 5.25824 2301 ft 179 kts 350°
2026-04-28 16:52 60.18547 5.25424 2082 ft 171 kts 349°
2026-04-28 16:53 60.19698 5.25040 1874 ft 164 kts 349°
2026-04-28 16:53 60.20712 5.24702 1676 ft 151 kts 349°
2026-04-28 16:53 60.21727 5.24363 1464 ft 145 kts 349°
2026-04-28 16:53 60.22717 5.24032 1286 ft 143 kts 349°
2026-04-28 16:54 60.23696 5.23705 1094 ft 142 kts 349°
2026-04-28 16:54 60.24668 5.23379 908 ft 142 kts 349°
2026-04-28 16:54 60.25639 5.23054 718 ft 141 kts 349°
2026-04-28 16:54 60.26279 5.22840 595 ft 141 kts 349°
2026-04-28 16:55 60.27570 5.22406 356 ft 140 kts 349°
2026-04-28 16:55 60.28517 5.22076 180 ft 137 kts 349°
2026-04-28 16:55 60.29355 5.21792 155 ft 107 kts 351°
2026-04-28 16:55 60.29939 5.21599 155 ft 48 kts 351°
2026-04-28 16:56 60.30035 5.21647 159 ft 0 kts 106°
2026-04-28 16:56 60.30029 5.21762 160 ft 23 kts 79°
2026-04-28 16:56 60.30002 5.21900 158 ft 3 kts 163°
2026-04-28 16:56 60.29996 5.21903 158 ft 0 kts 163°
2026-04-28 16:57 60.29975 5.21915 157 ft 9 kts 167°
2026-04-28 16:57 60.29864 5.21959 153 ft 22 kts 170°
2026-04-28 16:58 60.29700 5.22014 150 ft 25 kts 171°
2026-04-28 16:58 60.29531 5.22072 155 ft 24 kts 169°
2026-04-28 16:58 60.29374 5.22145 162 ft 17 kts 147°
2026-04-28 16:58 60.29312 5.22255 168 ft 10 kts 162°
2026-04-28 16:59 60.29230 5.22294 174 ft 17 kts 168°
2026-04-28 16:59 60.29122 5.22335 179 ft 16 kts 169°
2026-04-28 16:59 60.29007 5.22371 176 ft 17 kts 169°
2026-04-28 16:59 60.28949 5.22442 175 ft 3 kts 114°
2026-04-28 17:00 60.28944 5.22472 175 ft 8 kts 109°
2026-04-28 17:00 60.28935 5.22525 175 ft 2 kts 108°
2026-04-28 17:00 60.28932 5.22546 175 ft 0 kts 108°
2026-04-28 17:00 60.28932 5.22547 175 ft 0 kts 108°